Wind_Speed
8 9 10 10 12 12 14 15 16 18 19 19 20 21 22 23 24 24 24 23 24 24 31 29 30 32 31 31 32 31 31 31 31 32 35 35 35 33 33 34 35 35 31 31 24 20 22
6 7 9 10 11 12 13 15 16 18 21 22 22 22 23 24 24 25 26 25 24 26 29 29 29 31 32 33 33 34 33 33 34 35 37 38 37 35 35 34 36 35 32 27 25 22 18
7 8 10 12 13 14 15 17 17 19 19 20 22 24 25 26 27 28 28 27 27 26 27 30 28 31 32 33 34 33 33 33 34 36 37 39 39 36 36 36 34 36 29 28 25 22 18
9 8 9 11 13 15 17 18 19 20 21 22 21 22 24 26 27 28 29 27 28 27 27 30 28 31 31 32 32 34 35 34 34 36 38 39 40 37 35 35 37 36 32 26 23 21 18
9 11 12 12 15 17 19 20 19 22 23 22 24 23 23 24 27 27 28 30 29 27 26 28 29 30 31 30 33 33 35 37 37 36 37 37 40 40 37 34 32 32 31 28 20 20 17
12 13 14 16 19 18 19 21 20 23 23 24 23 25 25 24 26 28 28 29 32 28 26 27 28 29 30 28 31 34 35 36 38 37 36 36 37 38 38 35 38 36 33 27 20 16 16
14 17 18 18 19 20 21 22 23 23 23 23 25 26 27 29 30 26 28 28 31 28 25 24 28 27 27 28 29 31 34 35 37 38 36 35 35 37 38 39 38 36 34 28 23 18 13
16 17 17 20 18 19 21 22 23 24 24 26 26 28 31 27 29 24 26 27 29 27 19 20 23 25 24 24 27 30 32 33 36 36 36 33 33 35 35 35 37 33 32 27 25 21 14
18 18 19 20 22 21 22 23 24 25 25 27 29 30 31 32 32 26 28 26 24 25 26 20 25 21 24 22 25 29 31 33 33 36 35 33 33 35 35 32 29 31 30 29 24 21 19
21 21 22 22 23 24 25 24 25 27 26 27 30 33 33 32 27 22 24 23 22 26 27 24 22 24 25 28 28 30 32 33 35 37 36 34 33 32 32 29 29 30 29 28 23 17 18
24 25 25 25 23 23 25 27 27 25 28 28 30 33 33 31 25 19 17 18 21 26 27 26 26 24 25 29 30 32 34 33 32 34 35 35 30 27 29 28 29 28 27 26 22 16 15
27 27 26 26 26 25 25 26 28 30 29 32 28 32 30 29 23 17 15 16 21 24 22 25 25 26 29 31 31 32 32 32 33 31 31 33 32 27 25 26 26 26 25 21 20 16 10
25 28 28 27 27 27 25 26 28 28 30 30 30 29 30 28 23 21 18 21 20 21 23 24 26 29 31 32 32 31 33 33 33 32 25 24 31 28 22 20 20 18 16 18 18 18 15
29 28 27 26 29 31 28 28 27 28 30 32 33 32 28 27 24 23 21 21 25 26 25 24 24 26 28 32 33 32 34 37 37 34 33 27 30 29 25 24 21 21 21 22 19 17 17
36 31 30 29 29 29 29 29 27 29 28 31 31 31 28 25 24 25 21 22 25 23 22 26 29 28 28 30 33 35 38 40 39 39 35 31 26 31 27 24 17 17 15 16 15 15 13
36 30 31 31 32 29 37 32 29 30 29 30 33 30 30 25 20 24 22 21 24 24 27 30 33 31 29 28 31 34 36 38 38 35 33 29 22 25 25 23 19 18 14 11 11 12 13
33 36 38 33 31 32 34 34 32 34 32 31 33 30 30 28 22 21 21 21 23 26 29 30 29 31 31 28 29 31 33 35 34 32 31 27 22 20 27 20 19 16 14 10 8 10 10
35 38 40 35 33 33 35 34 34 33 35 34 34 32 30 28 26 21 21 21 24 25 28 30 29 28 28 27 26 29 31 32 32 32 29 26 21 17 18 19 19 20 11 9 8 9 13
35 38 34 37 37 36 36 36 36 36 36 35 35 31 33 30 26 23 23 21 22 28 27 28 28 28 25 26 26 26 28 29 30 31 30 25 24 18 17 18 18 21 16 10 10 13 17
37 38 35 37 40 36 38 38 38 37 38 36 36 33 32 34 29 25 22 24 23 25 27 25 28 29 26 25 25 25 26 27 29 29 28 26 23 24 22 20 11 16 21 14 11 10 12
33 34 38 39 40 41 42 40 38 39 40 37 37 34 33 32 30 27 24 22 24 25 28 25 26 27 26 26 25 24 24 24 27 27 27 25 23 21 21 22 19 17 21 23 25 24 19
33 39 39 40 39 40 43 44 40 39 39 36 38 36 36 33 31 29 27 26 26 25 31 29 27 26 26 26 27 24 22 22 22 22 25 27 26 26 18 27 26 20 23 24 25 27 29
33 37 39 40 39 39 43 45 41 40 40 38 39 37 39 36 34 33 33 31 26 30 29 32 31 29 27 27 28 27 24 23 22 24 25 26 29 30 25 27 29 29 28 30 31 33 35
40 41 40 42 43 42 42 45 50 47 44 36 39 38 39 36 36 37 36 36 33 29 28 30 35 33 30 30 31 29 27 26 27 27 28 28 30 36 38 38 39 39 37 37 38 39 39
46 46 47 45 46 45 45 46 53 49 44 38 42 38 38 33 34 35 35 37 38 32 30 32 35 34 32 33 33 31 29 30 31 32 30 29 34 39 40 42 45 44 44 43 44 47 48
51 49 49 48 47 50 49 50 53 56 50 44 46 38 39 40 39 40 44 39 35 33 34 35 36 36 35 35 35 33 33 35 35 32 33 36 38 41 41 43 45 47 48 49 52 54 54
52 53 52 51 52 54 53 50 53 49 45 47 42 47 46 45 38 37 38 37 35 36 35 37 37 39 38 37 39 37 37 37 37 39 41 43 45 46 46 50 52 52 55 58 60 58 61
54 54 54 53 53 56 57 54 48 46 50 47 44 41 41 38 36 36 37 38 41 39 38 39 40 40 39 41 39 39 38 39 40 44 47 49 50 51 53 55 58 60 63 64 64 63 64
48 48 49 51 53 55 58 54 51 44 42 39 40 41 40 38 35 36 39 41 41 41 40 37 38 37 38 39 39 39 43 45 46 46 49 51 53 56 58 61 64 66 67 67 68 69 70
Wind_Direction
18 11 7 6 3 3 357 349 348 346 343 343 342 341 343 345 342 343 344 344 346 351 349 349 350 355 355 355 352 349 350 353 352 350 352 349 347 345 344 342 339 335 332 328 320 311 290
4 357 354 357 357 353 349 343 345 343 341 340 340 336 334 335 338 339 340 340 340 343 348 347 348 352 353 350 350 349 346 350 351 351 353 352 351 348 346 345 342 342 336 333 331 323 309
349 350 355 351 351 343 343 341 343 340 336 336 336 332 329 330 332 334 335 336 336 335 339 347 344 347 351 349 347 347 345 347 349 352 354 355 354 351 349 347 347 343 340 336 333 326 307
346 343 351 349 352 343 337 335 332 329 331 329 329 328 330 329 327 327 327 327 328 330 331 338 343 341 345 347 346 344 343 346 348 349 355 355 354 354 351 352 350 347 341 344 327 328 323
338 341 338 342 343 335 337 332 323 325 321 323 322 324 325 328 326 323 323 327 321 321 324 326 336 340 342 341 346 347 344 344 344 346 350 353 352 352 352 354 354 352 348 343 335 328 328
321 325 321 322 325 327 333 336 327 321 316 318 322 323 324 326 327 331 323 319 326 321 318 324 330 335 336 334 340 345 345 342 344 345 345 350 351 353 350 353 357 356 355 348 345 329 322
324 322 316 315 321 325 326 331 329 328 319 314 317 318 316 330 325 331 328 324 322 329 315 319 325 331 334 335 336 339 342 342 342 345 343 345 350 351 355 355 356 356 356 357 357 348 333
310 316 316 317 318 320 326 327 328 328 324 318 313 313 311 325 330 326 327 327 335 334 325 320 323 326 330 330 331 334 337 341 344 342 343 343 347 350 356 359 355 356 359 4 11 12 6
300 306 309 312 314 316 320 324 328 325 326 327 324 322 321 323 316 315 323 327 331 337 334 323 319 316 324 325 330 331 333 336 340 341 342 345 348 348 353 358 358 0 5 10 18 29 27
294 294 301 304 307 314 316 321 325 325 327 327 327 329 330 327 324 310 318 323 325 330 337 327 324 319 320 321 326 330 331 334 336 340 339 344 346 347 347 352 2 3 11 9 20 36 38
287 286 293 298 300 305 312 316 316 321 325 327 331 335 337 333 323 317 314 320 323 327 333 334 325 321 315 317 322 328 329 332 335 337 338 337 338 340 340 354 4 7 12 8 22 43 58
287 290 290 289 296 299 305 309 311 317 322 326 330 335 337 338 326 320 322 327 331 333 330 330 333 325 320 319 321 322 325 328 331 333 338 332 336 336 345 352 -0 9 12 13 22 44 65
296 289 286 282 287 296 298 301 304 309 314 322 321 333 336 339 333 321 320 327 331 333 333 333 332 334 331 326 322 319 321 323 325 327 338 336 332 334 345 347 356 10 12 27 34 48 60
294 291 284 280 283 284 289 292 296 302 311 315 318 325 331 333 338 325 315 322 335 335 337 337 341 342 340 337 331 323 322 322 327 332 332 345 332 334 340 345 347 2 15 18 36 37 52
293 289 285 281 283 285 287 291 286 295 304 310 312 317 327 328 341 337 319 318 325 326 334 336 334 335 334 332 327 326 327 324 331 333 331 341 344 329 337 340 343 351 1 23 26 42 50
285 284 285 283 282 285 284 289 290 292 300 304 305 313 323 316 330 337 331 321 316 320 323 329 330 333 337 339 336 331 329 328 331 333 334 338 350 324 333 333 339 337 356 4 17 35 50
283 288 285 278 281 283 285 291 294 298 296 303 304 310 313 311 312 327 330 328 321 324 325 328 333 334 335 341 340 336 334 333 333 331 333 338 347 334 330 333 331 334 328 341 8 18 22
280 287 283 276 280 284 285 288 288 290 294 300 301 305 305 302 306 315 322 325 327 326 329 328 330 334 335 341 342 341 339 340 337 336 337 339 340 342 328 329 328 319 313 319 344 1 5
276 284 283 277 280 285 284 284 281 291 293 295 298 302 300 299 296 299 312 315 333 323 326 328 330 332 335 334 338 342 343 342 341 340 339 343 338 345 328 327 330 315 314 316 319 333 339
272 280 281 277 280 279 282 281 280 284 286 291 293 300 299 298 295 292 303 312 325 316 317 322 329 327 327 326 332 336 339 338 337 337 337 339 337 343 339 336 336 298 301 311 295 292 307
268 273 280 285 288 285 282 279 281 283 281 291 293 294 294 295 296 287 289 302 315 311 311 314 321 322 318 320 323 325 331 332 332 337 337 339 342 344 334 329 337 323 317 316 314 311 303
267 279 286 285 285 289 287 282 279 282 278 284 290 292 291 291 292 284 280 292 306 306 305 307 310 315 309 311 316 319 322 322 323 325 328 330 329 326 321 315 319 316 304 302 298 297 299
268 270 281 278 286 292 287 280 277 277 278 280 284 287 292 292 286 287 282 280 290 306 297 301 303 304 303 304 308 311 310 310 313 315 316 315 313 313 312 304 302 301 299 299 300 299 299
270 270 274 277 284 289 288 276 273 272 272 277 280 282 280 287 285 282 282 276 283 285 286 295 295 298 298 296 301 300 302 305 305 306 308 302 303 309 309 307 306 306 306 303 301 299 296
265 268 271 276 282 285 286 278 278 275 276 276 274 276 277 278 282 286 285 284 284 279 284 289 286 290 292 295 298 297 298 300 301 302 298 296 299 300 301 302 301 302 301 301 300 296 296
265 267 271 276 280 284 283 284 283 277 270 266 267 272 269 276 281 280 281 279 273 276 280 281 284 287 287 289 291 291 292 296 297 297 297 297 299 298 300 299 299 299 299 298 294 292 294
261 267 270 274 278 279 281 281 282 274 273 270 267 274 274 281 288 279 276 276 272 276 276 279 281 282 284 286 286 285 289 291 294 295 297 297 296 295 296 295 296 298 299 298 296 296 293
261 263 267 273 277 279 282 284 278 264 264 266 270 278 283 284 281 277 276 276 275 274 280 280 280 285 288 289 288 288 287 289 292 294 295 293 294 295 295 297 298 298 299 297 294 292 291
263 266 270 272 273 275 278 282 274 263 265 273 273 274 277 277 275 274 277 281 277 277 282 285 289 293 292 291 289 287 289 289 291 291 293 294 295 296 296 295 296 295 294 294 293 292 291
Height
5855 5855 5853 5852 5850 5849 5847 5845 5843 5842 5839 5837 5835 5833 5829 5826 5822 5818 5815 5812 5808 5804 5800 5795 5791 5786 5782 5777 5773 5768 5763 5759 5752 5746 5740 5733 5726 5719 5711 5703 5696 5686 5679 5671 5664 5658 5654
5855 5854 5853 5852 5851 5849 5847 5845 5843 5841 5838 5836 5833 5829 5826 5824 5821 5818 5814 5811 5807 5803 5799 5794 5790 5785 5780 5777 5771 5766 5761 5755 5749 5743 5736 5729 5722 5715 5708 5700 5692 5683 5674 5669 5662 5655 5651
5855 5854 5853 5851 5851 5848 5847 5844 5843 5840 5837 5834 5831 5827 5824 5823 5821 5817 5814 5810 5806 5802 5798 5793 5789 5784 5780 5776 5769 5765 5760 5754 5748 5741 5734 5726 5719 5712 5705 5697 5689 5680 5673 5664 5658 5653 5648
5854 5853 5852 5850 5850 5847 5845 5843 5841 5838 5836 5832 5829 5825 5823 5821 5817 5814 5811 5808 5804 5800 5797 5792 5788 5783 5779 5774 5770 5763 5758 5752 5747 5740 5732 5725 5717 5711 5704 5695 5686 5677 5669 5663 5656 5651 5647
5854 5853 5852 5850 5849 5846 5844 5842 5839 5836 5834 5830 5827 5824 5821 5818 5814 5811 5808 5805 5801 5798 5794 5790 5787 5783 5778 5773 5768 5763 5757 5750 5745 5739 5731 5725 5717 5709 5702 5695 5688 5678 5669 5660 5655 5649 5646
5853 5852 5850 5849 5847 5844 5843 5840 5837 5834 5831 5828 5825 5823 5819 5816 5813 5810 5806 5802 5798 5795 5791 5788 5785 5782 5777 5772 5767 5761 5755 5750 5744 5737 5731 5724 5717 5709 5702 5694 5685 5677 5669 5661 5655 5650 5645
5851 5850 5849 5847 5845 5843 5841 5838 5835 5831 5828 5826 5823 5820 5816 5814 5809 5805 5801 5798 5796 5793 5788 5785 5782 5777 5773 5770 5766 5760 5755 5749 5743 5737 5730 5723 5716 5709 5700 5691 5684 5677 5669 5661 5655 5650 5646
5848 5847 5846 5844 5843 5840 5838 5836 5832 5829 5826 5823 5820 5817 5813 5810 5806 5802 5798 5794 5790 5788 5786 5781 5778 5775 5771 5766 5763 5759 5754 5748 5741 5734 5729 5723 5716 5708 5701 5693 5684 5679 5671 5663 5657 5652 5648
5845 5844 5843 5842 5840 5839 5836 5834 5830 5827 5824 5820 5817 5813 5809 5806 5802 5799 5794 5791 5787 5783 5781 5779 5775 5771 5767 5764 5760 5756 5751 5745 5740 5732 5726 5721 5715 5707 5701 5695 5689 5680 5673 5666 5660 5656 5652
5842 5841 5840 5839 5837 5836 5834 5831 5828 5825 5822 5817 5814 5810 5805 5802 5798 5794 5791 5787 5784 5780 5778 5777 5773 5770 5765 5761 5757 5752 5747 5743 5736 5730 5724 5718 5713 5707 5702 5697 5690 5682 5675 5669 5664 5661 5659
5838 5836 5836 5835 5833 5832 5830 5828 5825 5822 5819 5815 5811 5807 5803 5797 5794 5790 5788 5784 5780 5777 5774 5773 5768 5765 5761 5759 5755 5750 5745 5741 5736 5730 5724 5718 5714 5709 5703 5697 5691 5685 5678 5674 5669 5665 5664
5833 5833 5831 5831 5830 5829 5827 5824 5821 5818 5816 5813 5807 5804 5800 5796 5791 5788 5784 5781 5779 5776 5770 5768 5766 5762 5759 5755 5751 5746 5741 5737 5733 5730 5724 5716 5711 5708 5702 5696 5692 5686 5682 5678 5673 5669 5668
5829 5827 5826 5825 5825 5824 5822 5820 5818 5815 5811 5808 5804 5801 5797 5793 5789 5785 5782 5779 5777 5770 5769 5766 5762 5759 5756 5752 5747 5743 5739 5733 5728 5724 5723 5718 5708 5704 5703 5699 5694 5690 5686 5682 5679 5674 5671
5823 5821 5820 5819 5819 5818 5818 5815 5813 5810 5807 5804 5801 5797 5794 5791 5786 5782 5779 5777 5773 5770 5766 5762 5758 5755 5752 5749 5745 5740 5735 5729 5725 5720 5715 5714 5707 5702 5699 5696 5691 5689 5685 5682 5680 5677 5676
5817 5815 5814 5814 5813 5812 5811 5810 5807 5805 5803 5801 5797 5794 5790 5787 5783 5779 5777 5774 5771 5768 5765 5761 5756 5752 5749 5745 5740 5736 5732 5726 5721 5717 5713 5709 5707 5698 5697 5694 5693 5689 5688 5685 5682 5681 5679
5811 5810 5808 5808 5808 5807 5806 5804 5802 5801 5798 5795 5793 5790 5786 5784 5779 5777 5774 5770 5767 5764 5760 5756 5753 5749 5744 5739 5735 5731 5727 5723 5719 5713 5709 5707 5705 5698 5697 5694 5693 5689 5690 5687 5685 5683 5681
5805 5803 5802 5801 5801 5800 5799 5798 5797 5795 5792 5791 5788 5785 5782 5779 5776 5773 5769 5766 5764 5760 5757 5754 5749 5745 5742 5736 5732 5728 5724 5720 5715 5711 5707 5704 5702 5699 5693 5693 5691 5690 5688 5687 5686 5685 5684
5797 5796 5794 5794 5793 5792 5791 5791 5790 5789 5785 5784 5783 5781 5777 5774 5773 5768 5765 5762 5760 5757 5753 5750 5746 5741 5738 5733 5729 5724 5720 5717 5713 5709 5705 5703 5699 5697 5694 5691 5689 5686 5687 5687 5686 5686 5684
5789 5789 5787 5787 5786 5785 5784 5783 5782 5781 5778 5777 5776 5774 5771 5768 5766 5763 5761 5757 5754 5752 5749 5745 5742 5738 5734 5731 5727 5722 5718 5714 5710 5707 5704 5701 5696 5695 5692 5691 5687 5682 5684 5688 5687 5686 5683
5780 5782 5780 5779 5778 5776 5776 5774 5773 5772 5770 5770 5768 5767 5765 5762 5759 5757 5754 5753 5748 5745 5743 5739 5737 5734 5730 5727 5725 5719 5715 5711 5707 5705 5702 5699 5696 5693 5690 5688 5687 5683 5679 5682 5683 5684 5685
5774 5773 5773 5771 5769 5768 5766 5765 5764 5763 5761 5762 5761 5759 5757 5756 5752 5750 5748 5747 5744 5740 5738 5734 5731 5728 5727 5723 5720 5716 5712 5708 5704 5702 5701 5697 5696 5694 5690 5687 5687 5686 5685 5682 5682 5681 5680
5764 5764 5764 5763 5761 5759 5757 5755 5755 5754 5752 5751 5751 5750 5748 5748 5744 5742 5741 5739 5738 5734 5733 5729 5726 5723 5720 5718 5715 5711 5707 5703 5700 5698 5696 5694 5692 5691 5690 5684 5682 5683 5679 5679 5676 5674 5673
5755 5755 5754 5754 5752 5750 5748 5746 5745 5744 5743 5741 5742 5741 5740 5739 5737 5735 5734 5732 5731 5727 5726 5723 5720 5717 5713 5711 5708 5705 5702 5698 5696 5693 5691 5689 5687 5685 5686 5682 5680 5679 5677 5674 5672 5669 5666
5746 5745 5744 5744 5742 5740 5739 5737 5735 5733 5732 5732 5732 5731 5730 5731 5728 5726 5725 5723 5722 5719 5717 5714 5713 5710 5708 5704 5701 5699 5696 5693 5690 5687 5685 5683 5680 5677 5675 5672 5670 5669 5667 5665 5663 5660 5656
5734 5734 5734 5733 5732 5731 5729 5727 5725 5724 5723 5723 5722 5721 5719 5720 5718 5716 5714 5713 5713 5711 5709 5705 5704 5702 5700 5699 5696 5693 5690 5687 5683 5681 5678 5675 5672 5669 5666 5663 5660 5657 5656 5653 5649 5646 5643
5722 5722 5723 5723 5722 5721 5720 5718 5714 5712 5711 5710 5710 5710 5708 5709 5708 5706 5704 5703 5703 5702 5700 5697 5695 5693 5691 5688 5686 5684 5681 5678 5676 5673 5671 5667 5663 5660 5657 5652 5648 5645 5643 5639 5635 5631 5629
5709 5709 5711 5711 5711 5710 5709 5707 5705 5703 5701 5699 5698 5697 5697 5696 5696 5695 5694 5693 5692 5691 5689 5687 5685 5684 5681 5679 5677 5675 5672 5669 5666 5663 5659 5655 5652 5649 5645 5640 5637 5631 5627 5623 5620 5619 5608
5695 5696 5697 5698 5698 5697 5696 5695 5693 5690 5690 5688 5688 5686 5685 5684 5684 5685 5684 5683 5681 5679 5678 5677 5675 5673 5671 5668 5666 5664 5662 5659 5657 5653 5649 5645 5640 5636 5632 5627 5623 5617 5610 5604 5599 5593 5590
5683 5683 5685 5685 5685 5685 5685 5683 5682 5679 5677 5676 5676 5675 5675 5675 5675 5675 5674 5673 5672 5670 5668 5666 5666 5664 5661 5659 5657 5654 5652 5649 5646 5642 5637 5633 5628 5622 5619 5612 5606 5600 5593 5587 5580 5574 5569